IGO556K VASD-VOHS

Flight info

Callsign IGO556K
Flight time 1h 12m
Altitude 35000
Route OPAKA DCT MELAX DCT SUSMA BINAT6
Aircraft A320/M-SDE3FGHIRWY/LB1

Departure

Time 2026-05-01 10:22
Airport Shirdi International Airport (VASD)

Arrival

Time 2026-05-01 11:34
Airport Rajiv Gandhi International Airport (VOHS)
Time Latitude Longitude Altitude Speed Heading
2026-05-01 10:00 19.68529 74.37240 1918 ft 0 kts 180°
2026-05-01 10:10 19.68553 74.37240 1918 ft 2 kts 178°
2026-05-01 10:11 19.68569 74.37239 1918 ft 2 kts 178°
2026-05-01 10:11 19.68586 74.37239 1918 ft 2 kts 192°
2026-05-01 10:11 19.68600 74.37246 1918 ft 2 kts 252°
2026-05-01 10:11 19.68603 74.37262 1918 ft 1 kts 268°
2026-05-01 10:12 19.68603 74.37266 1918 ft 0 kts 269°
2026-05-01 10:14 19.68603 74.37264 1918 ft 0 kts 269°
2026-05-01 10:14 19.68603 74.37263 1918 ft 1 kts 269°
2026-05-01 10:14 19.68603 74.37254 1918 ft 2 kts 269°
2026-05-01 10:14 19.68603 74.37232 1918 ft 4 kts 269°
2026-05-01 10:15 19.68612 74.37193 1918 ft 7 kts 308°
2026-05-01 10:15 19.68667 74.37173 1918 ft 10 kts 353°
2026-05-01 10:15 19.68742 74.37173 1918 ft 12 kts
2026-05-01 10:15 19.68826 74.37174 1919 ft 12 kts
2026-05-01 10:16 19.68873 74.37235 1918 ft 13 kts 90°
2026-05-01 10:16 19.68875 74.37343 1917 ft 16 kts 88°
2026-05-01 10:16 19.68880 74.37607 1917 ft 20 kts 88°
2026-05-01 10:17 19.68883 74.37760 1906 ft 22 kts 88°
2026-05-01 10:17 19.68891 74.38100 1909 ft 23 kts 90°
2026-05-01 10:17 19.68896 74.38272 1914 ft 23 kts 89°
2026-05-01 10:18 19.68903 74.38563 1916 ft 12 kts 88°
2026-05-01 10:18 19.68936 74.38632 1916 ft 11 kts 20°
2026-05-01 10:18 19.69011 74.38638 1917 ft 11 kts 360°
2026-05-01 10:19 19.69078 74.38663 1917 ft 10 kts 37°
2026-05-01 10:19 19.69111 74.38726 1917 ft 10 kts 75°
2026-05-01 10:19 19.69126 74.38800 1918 ft 11 kts 78°
2026-05-01 10:20 19.69034 74.38896 1918 ft 12 kts 180°
2026-05-01 10:20 19.69010 74.38894 1918 ft 2 kts 184°
2026-05-01 10:20 19.68989 74.38892 1918 ft 4 kts 184°
2026-05-01 10:20 19.68957 74.38890 1918 ft 6 kts 184°
2026-05-01 10:21 19.68918 74.38870 1918 ft 8 kts 231°
2026-05-01 10:21 19.68910 74.38840 1918 ft 0 kts 268°
2026-05-01 10:21 19.68909 74.38777 1917 ft 35 kts 269°
2026-05-01 10:22 19.68878 74.37373 1921 ft 144 kts 270°
2026-05-01 10:22 19.68873 74.35292 3228 ft 135 kts 269°
2026-05-01 10:23 19.68858 74.34260 3552 ft 150 kts 265°
2026-05-01 10:23 19.67060 74.32841 3888 ft 216 kts 177°
2026-05-01 10:23 19.65651 74.33623 4107 ft 248 kts 136°
2026-05-01 10:24 19.64414 74.37405 4779 ft 296 kts 98°
2026-05-01 10:24 19.63806 74.41804 6365 ft 305 kts 100°
2026-05-01 10:25 19.62915 74.46202 7980 ft 309 kts 103°
2026-05-01 10:25 19.61770 74.50655 9525 ft 317 kts 104°
2026-05-01 10:26 19.61155 74.52924 10070 ft 329 kts 104°
2026-05-01 10:26 19.60579 74.55354 10273 ft 350 kts 97°
2026-05-01 10:26 19.60059 74.60592 11389 ft 362 kts 94°
2026-05-01 10:27 19.59539 74.65945 12741 ft 367 kts 95°
2026-05-01 10:27 19.59005 74.71382 14012 ft 374 kts 94°
2026-05-01 10:28 19.58826 74.73204 14398 ft 376 kts 94°
2026-05-01 10:28 19.58285 74.78758 15526 ft 382 kts 94°
2026-05-01 10:28 19.58011 74.81572 16090 ft 386 kts 94°
2026-05-01 10:29 19.57452 74.87280 17202 ft 393 kts 93°
2026-05-01 10:29 19.57170 74.90177 17735 ft 397 kts 92°
2026-05-01 10:30 19.56597 74.96062 18709 ft 405 kts 92°
2026-05-01 10:30 19.56011 75.02031 19713 ft 410 kts 92°
2026-05-01 10:31 19.55409 75.08087 20708 ft 416 kts 92°
2026-05-01 10:31 19.54797 75.14224 21688 ft 421 kts 92°
2026-05-01 10:32 19.54176 75.20445 22648 ft 427 kts 92°
2026-05-01 10:32 19.53862 75.23584 23122 ft 430 kts 92°
2026-05-01 10:32 19.53231 75.29936 23918 ft 436 kts 92°
2026-05-01 10:33 19.52588 75.36367 24637 ft 442 kts 92°
2026-05-01 10:33 19.51926 75.42877 25332 ft 447 kts 93°
2026-05-01 10:34 19.51594 75.46170 25673 ft 450 kts 93°
2026-05-01 10:34 19.51262 75.49472 26016 ft 453 kts 93°
2026-05-01 10:34 19.50927 75.52806 26350 ft 456 kts 93°
2026-05-01 10:35 19.50039 75.59495 26988 ft 464 kts 102°
2026-05-01 10:35 19.48982 75.62742 27294 ft 469 kts 112°
2026-05-01 10:35 19.47436 75.65798 27606 ft 473 kts 122°
2026-05-01 10:35 19.45436 75.68573 27899 ft 476 kts 131°
2026-05-01 10:36 19.41027 75.73862 28539 ft 481 kts 131°
2026-05-01 10:36 19.38814 75.76524 28862 ft 483 kts 131°
2026-05-01 10:36 19.36591 75.79203 29185 ft 486 kts 131°
2026-05-01 10:37 19.34351 75.81901 29500 ft 488 kts 131°
2026-05-01 10:37 19.29840 75.87321 30082 ft 493 kts 131°
2026-05-01 10:37 19.27567 75.90044 30342 ft 495 kts 131°
2026-05-01 10:38 19.25284 75.92779 30596 ft 497 kts 131°
2026-05-01 10:38 19.22993 75.95526 30864 ft 499 kts 131°
2026-05-01 10:38 19.20692 75.98281 31139 ft 500 kts 131°
2026-05-01 10:38 19.18388 76.01033 31517 ft 499 kts 131°
2026-05-01 10:39 19.16087 76.03780 31899 ft 499 kts 131°
2026-05-01 10:39 19.13791 76.06526 32290 ft 498 kts 131°
2026-05-01 10:39 19.11497 76.09274 32678 ft 498 kts 131°
2026-05-01 10:39 19.09208 76.12018 33072 ft 497 kts 131°
2026-05-01 10:40 19.06922 76.14755 33466 ft 497 kts 131°
2026-05-01 10:40 19.04629 76.17491 33856 ft 496 kts 131°
2026-05-01 10:40 19.02340 76.20221 34200 ft 495 kts 131°
2026-05-01 10:40 19.00056 76.22943 34568 ft 494 kts 131°
2026-05-01 10:41 18.97774 76.25658 34762 ft 494 kts 131°
2026-05-01 10:41 18.95493 76.28374 34816 ft 497 kts 130°
2026-05-01 10:41 18.90834 76.33926 34818 ft 513 kts 130°
2026-05-01 10:42 18.88451 76.36766 34818 ft 518 kts 130°
2026-05-01 10:42 18.83659 76.42466 34817 ft 520 kts 130°
2026-05-01 10:43 18.78860 76.48155 34816 ft 521 kts 131°
2026-05-01 10:43 18.74047 76.53865 34815 ft 520 kts 130°
2026-05-01 10:44 18.69244 76.59579 34813 ft 520 kts 130°
2026-05-01 10:44 18.64440 76.65290 34814 ft 520 kts 130°
2026-05-01 10:45 18.59623 76.70988 34812 ft 521 kts 131°
2026-05-01 10:45 18.54796 76.76679 34817 ft 520 kts 131°
2026-05-01 10:46 18.49976 76.82361 34817 ft 520 kts 130°
2026-05-01 10:46 18.45162 76.88055 34814 ft 520 kts 130°
2026-05-01 10:47 18.40350 76.93752 34818 ft 520 kts 130°
2026-05-01 10:47 18.35524 76.99439 34820 ft 521 kts 131°
2026-05-01 10:48 18.30688 77.05118 34825 ft 521 kts 131°
2026-05-01 10:48 18.25936 77.10698 34552 ft 501 kts 130°
2026-05-01 10:48 18.23636 77.13405 34329 ft 493 kts 130°
2026-05-01 10:49 18.21358 77.16088 34106 ft 489 kts 130°
2026-05-01 10:49 18.19096 77.18749 33881 ft 487 kts 130°
2026-05-01 10:49 18.16842 77.21395 33637 ft 485 kts 130°
2026-05-01 10:49 18.14595 77.24031 33175 ft 482 kts 130°
2026-05-01 10:50 18.12395 77.26609 32613 ft 481 kts 130°
2026-05-01 10:50 18.10180 77.29209 32060 ft 480 kts 130°
2026-05-01 10:50 18.07953 77.31825 31505 ft 479 kts 130°
2026-05-01 10:50 18.05736 77.34428 30944 ft 477 kts 130°
2026-05-01 10:51 18.03524 77.37020 30396 ft 476 kts 130°
2026-05-01 10:51 18.01315 77.39605 29839 ft 474 kts 130°
2026-05-01 10:51 17.99114 77.42175 29251 ft 472 kts 130°
2026-05-01 10:51 17.96932 77.44721 28726 ft 467 kts 130°
2026-05-01 10:52 17.94767 77.47250 28207 ft 463 kts 130°
2026-05-01 10:52 17.92627 77.49754 27728 ft 459 kts 130°
2026-05-01 10:52 17.90557 77.52276 27278 ft 453 kts 128°
2026-05-01 10:52 17.88618 77.54805 26827 ft 448 kts 126°
2026-05-01 10:53 17.86731 77.57382 26386 ft 444 kts 126°
2026-05-01 10:53 17.84854 77.59993 25947 ft 440 kts 125°
2026-05-01 10:53 17.83043 77.62507 25508 ft 436 kts 126°
2026-05-01 10:53 17.81203 77.65030 25065 ft 434 kts 126°
2026-05-01 10:54 17.79334 77.67557 24605 ft 432 kts 127°
2026-05-01 10:54 17.77512 77.69993 24155 ft 430 kts 127°
2026-05-01 10:54 17.75662 77.72450 23692 ft 429 kts 127°
2026-05-01 10:54 17.73815 77.74900 23195 ft 427 kts 127°
2026-05-01 10:55 17.71984 77.77333 22743 ft 423 kts 127°
2026-05-01 10:55 17.70176 77.79747 22316 ft 418 kts 127°
2026-05-01 10:55 17.68381 77.82150 21814 ft 416 kts 127°
2026-05-01 10:55 17.66607 77.84529 21289 ft 414 kts 127°
2026-05-01 10:56 17.64843 77.86889 20858 ft 409 kts 127°
2026-05-01 10:56 17.63089 77.89229 20425 ft 405 kts 128°
2026-05-01 10:56 17.61372 77.91517 19791 ft 395 kts 128°
2026-05-01 10:56 17.59684 77.93764 19333 ft 391 kts 128°
2026-05-01 10:57 17.58009 77.96001 18863 ft 389 kts 128°
2026-05-01 10:57 17.56353 77.98244 18393 ft 388 kts 127°
2026-05-01 10:57 17.54715 78.00482 17888 ft 386 kts 127°
2026-05-01 10:57 17.53088 78.02710 17419 ft 384 kts 128°
2026-05-01 10:58 17.51472 78.04918 16959 ft 380 kts 128°
2026-05-01 10:58 17.49867 78.07107 16503 ft 377 kts 128°
2026-05-01 10:58 17.49330 78.07840 16348 ft 376 kts 128°
2026-05-01 10:58 17.47968 78.09707 15964 ft 373 kts 128°
2026-05-01 10:59 17.46394 78.11856 15506 ft 371 kts 128°
2026-05-01 10:59 17.44826 78.13990 15055 ft 368 kts 128°
2026-05-01 10:59 17.43264 78.16110 14623 ft 366 kts 128°
2026-05-01 10:59 17.41744 78.18172 14172 ft 364 kts 129°
2026-05-01 11:00 17.40203 78.20257 13744 ft 361 kts 129°
2026-05-01 11:00 17.38670 78.22331 13272 ft 359 kts 129°
2026-05-01 11:00 17.37152 78.24391 12828 ft 356 kts 129°
2026-05-01 11:00 17.35643 78.26439 12415 ft 354 kts 129°
2026-05-01 11:01 17.34146 78.28470 11998 ft 352 kts 129°
2026-05-01 11:01 17.32689 78.30510 11576 ft 350 kts 123°
2026-05-01 11:01 17.31644 78.32799 11156 ft 349 kts 108°
2026-05-01 11:01 17.31199 78.35261 10935 ft 341 kts 92°
2026-05-01 11:02 17.31215 78.37701 10819 ft 330 kts 88°
2026-05-01 11:02 17.31263 78.40067 10690 ft 321 kts 88°
2026-05-01 11:02 17.31303 78.42364 10579 ft 311 kts 88°
2026-05-01 11:02 17.31341 78.44572 10461 ft 295 kts 88°
2026-05-01 11:03 17.31378 78.46671 10192 ft 284 kts 88°
2026-05-01 11:03 17.31414 78.48721 9821 ft 281 kts 88°
2026-05-01 11:03 17.31450 78.50740 9407 ft 277 kts 88°
2026-05-01 11:03 17.31487 78.52748 8894 ft 275 kts 87°
2026-05-01 11:04 17.31528 78.54739 8366 ft 274 kts 87°
2026-05-01 11:04 17.31573 78.56746 7707 ft 278 kts 87°
2026-05-01 11:04 17.31614 78.58751 7233 ft 274 kts 87°
2026-05-01 11:04 17.31647 78.60728 6827 ft 267 kts 87°
2026-05-01 11:05 17.31672 78.62615 6663 ft 251 kts 87°
2026-05-01 11:05 17.31594 78.64371 6567 ft 236 kts 99°
2026-05-01 11:05 17.30918 78.65877 6458 ft 227 kts 134°
2026-05-01 11:05 17.29622 78.66713 6348 ft 216 kts 167°
2026-05-01 11:06 17.28170 78.66920 6124 ft 207 kts 178°
2026-05-01 11:06 17.26749 78.66991 5874 ft 202 kts 182°
2026-05-01 11:06 17.25397 78.66765 5631 ft 194 kts 208°
2026-05-01 11:07 17.23667 78.64779 5184 ft 188 kts 239°
2026-05-01 11:07 17.23176 78.63513 4949 ft 185 kts 264°
2026-05-01 11:07 17.23129 78.62176 4712 ft 184 kts 271°
2026-05-01 11:07 17.23115 78.60854 4478 ft 184 kts 271°
2026-05-01 11:08 17.23099 78.59515 4178 ft 183 kts 270°
2026-05-01 11:08 17.23082 78.58195 3958 ft 177 kts 271°
2026-05-01 11:08 17.23051 78.55748 3555 ft 168 kts 270°
2026-05-01 11:09 17.23035 78.54534 3553 ft 159 kts 271°
2026-05-01 11:09 17.23020 78.53415 3455 ft 150 kts 272°
2026-05-01 11:09 17.23006 78.52336 3313 ft 147 kts 271°
2026-05-01 11:10 17.22979 78.50216 2979 ft 144 kts 271°
2026-05-01 11:10 17.22965 78.49176 2800 ft 142 kts 271°
2026-05-01 11:10 17.22951 78.48149 2632 ft 140 kts 271°
2026-05-01 11:10 17.22938 78.47122 2428 ft 142 kts 271°
2026-05-01 11:11 17.22953 78.46081 2213 ft 142 kts 268°
2026-05-01 11:11 17.22910 78.45061 2027 ft 141 kts 267°
2026-05-01 11:11 17.22901 78.44102 2071 ft 130 kts 270°
2026-05-01 11:11 17.22897 78.43017 2397 ft 171 kts 269°
2026-05-01 11:12 17.22875 78.41661 3034 ft 192 kts 268°
2026-05-01 11:12 17.22801 78.40278 3481 ft 196 kts 268°
2026-05-01 11:12 17.22825 78.38815 3561 ft 207 kts 285°
2026-05-01 11:12 17.23239 78.37921 3558 ft 208 kts 310°
2026-05-01 11:13 17.24903 78.37001 3574 ft 207 kts 353°
2026-05-01 11:13 17.25837 78.36953 3579 ft 201 kts 358°
2026-05-01 11:13 17.27236 78.36972 3580 ft 200 kts 359°
2026-05-01 11:13 17.28647 78.37016 3591 ft 212 kts 359°
2026-05-01 11:14 17.30109 78.37377 3571 ft 224 kts 27°
2026-05-01 11:14 17.31197 78.38561 3573 ft 232 kts 60°
2026-05-01 11:14 17.31545 78.40216 3583 ft 239 kts 86°
2026-05-01 11:14 17.31544 78.41964 3580 ft 241 kts 88°
2026-05-01 11:15 17.31498 78.43718 3585 ft 241 kts 90°
2026-05-01 11:15 17.31452 78.45459 3580 ft 235 kts 90°
2026-05-01 11:15 17.31416 78.47137 3570 ft 225 kts 89°
2026-05-01 11:15 17.31379 78.48730 3578 ft 215 kts 89°
2026-05-01 11:16 17.31346 78.50275 3606 ft 210 kts 90°
2026-05-01 11:16 17.31313 78.51786 3590 ft 208 kts 90°
2026-05-01 11:16 17.31285 78.53294 3582 ft 206 kts 88°
2026-05-01 11:16 17.31248 78.54791 3573 ft 206 kts 89°
2026-05-01 11:17 17.31209 78.56288 3576 ft 207 kts 89°
2026-05-01 11:17 17.31169 78.57779 3573 ft 204 kts 88°
2026-05-01 11:17 17.31121 78.59275 3581 ft 205 kts 89°
2026-05-01 11:17 17.31004 78.60762 3573 ft 207 kts 104°
2026-05-01 11:18 17.30217 78.61994 3576 ft 209 kts 143°
2026-05-01 11:18 17.28879 78.62527 3587 ft 208 kts 173°
2026-05-01 11:18 17.27441 78.62579 3577 ft 207 kts 193°
2026-05-01 11:18 17.26217 78.61900 3571 ft 200 kts 228°
2026-05-01 11:19 17.25390 78.60772 3587 ft 198 kts 237°
2026-05-01 11:19 17.24628 78.59562 3581 ft 197 kts 240°
2026-05-01 11:19 17.23919 78.58420 3572 ft 182 kts 239°
2026-05-01 11:19 17.23270 78.57312 3566 ft 176 kts 251°
2026-05-01 11:20 17.23053 78.56088 3577 ft 172 kts 271°
2026-05-01 11:20 17.23039 78.54828 3581 ft 172 kts 270°
2026-05-01 11:20 17.23023 78.53586 3491 ft 170 kts 271°
2026-05-01 11:20 17.23007 78.52383 3341 ft 157 kts 270°
2026-05-01 11:21 17.22992 78.51290 3158 ft 147 kts 272°
2026-05-01 11:21 17.22978 78.50241 2985 ft 144 kts 271°
2026-05-01 11:21 17.22965 78.49228 2812 ft 140 kts 271°
2026-05-01 11:21 17.22952 78.48214 2647 ft 139 kts 271°
2026-05-01 11:22 17.22938 78.47188 2442 ft 140 kts 271°
2026-05-01 11:22 17.22948 78.46159 2274 ft 141 kts 269°
2026-05-01 11:22 17.22902 78.45132 2042 ft 141 kts 267°
2026-05-01 11:22 17.22904 78.44180 2036 ft 113 kts 268°
2026-05-01 11:23 17.22885 78.43286 2340 ft 133 kts 271°
2026-05-01 11:23 17.22855 78.42314 3103 ft 133 kts 269°
2026-05-01 11:23 17.22800 78.41383 3465 ft 128 kts 270°
2026-05-01 11:23 17.22752 78.40403 3558 ft 144 kts 275°
2026-05-01 11:24 17.23187 78.39438 3547 ft 162 kts 321°
2026-05-01 11:24 17.24329 78.39010 3584 ft 193 kts 353°
2026-05-01 11:24 17.27213 78.39022 3581 ft 216 kts 359°
2026-05-01 11:25 17.28757 78.39089 3575 ft 226 kts
2026-05-01 11:25 17.31125 78.41088 3574 ft 237 kts 70°
2026-05-01 11:25 17.31321 78.42814 3585 ft 242 kts 87°
2026-05-01 11:26 17.31274 78.44572 3580 ft 243 kts 90°
2026-05-01 11:26 17.31152 78.48150 3582 ft 251 kts 91°
2026-05-01 11:26 17.31097 78.49993 3587 ft 253 kts 90°
2026-05-01 11:27 17.31042 78.51829 3583 ft 253 kts 91°
2026-05-01 11:27 17.30991 78.53666 3582 ft 251 kts 90°
2026-05-01 11:27 17.30932 78.55494 3577 ft 251 kts 90°
2026-05-01 11:27 17.30870 78.57324 3585 ft 250 kts 90°
2026-05-01 11:28 17.30801 78.59155 3581 ft 252 kts 90°
2026-05-01 11:28 17.30731 78.60982 3581 ft 251 kts 90°
2026-05-01 11:28 17.30601 78.62800 3575 ft 250 kts 101°
2026-05-01 11:29 17.28521 78.65197 3567 ft 217 kts 169°
2026-05-01 11:29 17.27059 78.65406 3598 ft 209 kts 178°
2026-05-01 11:29 17.24479 78.64487 3574 ft 199 kts 225°
2026-05-01 11:30 17.23633 78.63374 3575 ft 196 kts 244°
2026-05-01 11:30 17.23183 78.62044 3573 ft 193 kts 262°
2026-05-01 11:30 17.23114 78.60644 3572 ft 194 kts 271°
2026-05-01 11:30 17.23096 78.59240 3585 ft 192 kts 270°
2026-05-01 11:31 17.23078 78.57879 3572 ft 181 kts 271°
2026-05-01 11:31 17.23062 78.56612 3579 ft 174 kts 269°
2026-05-01 11:31 17.23046 78.55360 3577 ft 170 kts 271°
2026-05-01 11:31 17.23030 78.54127 3546 ft 168 kts 270°
2026-05-01 11:32 17.23014 78.52974 3433 ft 150 kts 270°
2026-05-01 11:32 17.23000 78.51904 3256 ft 144 kts 271°
2026-05-01 11:32 17.22987 78.50868 3088 ft 141 kts 271°
2026-05-01 11:32 17.22973 78.49839 2917 ft 142 kts 270°
2026-05-01 11:33 17.22960 78.48815 2742 ft 142 kts 269°
2026-05-01 11:33 17.22946 78.47781 2540 ft 141 kts 271°
2026-05-01 11:33 17.22933 78.46776 2376 ft 138 kts 267°
2026-05-01 11:33 17.22918 78.45760 2198 ft 141 kts 267°
2026-05-01 11:34 17.22906 78.44742 2000 ft 137 kts 269°
2026-05-01 11:34 17.22891 78.43853 1980 ft 103 kts 270°
2026-05-01 11:34 17.22883 78.43286 1981 ft 54 kts 269°
2026-05-01 11:34 17.22916 78.43045 1983 ft 23 kts 291°
2026-05-01 11:35 17.22968 78.42935 1980 ft 12 kts 300°
2026-05-01 11:35 17.22991 78.42893 1981 ft 0 kts 300°
2026-05-01 11:35 17.22995 78.42885 1979 ft 2 kts 300°
2026-05-01 11:35 17.22999 78.42879 1979 ft 0 kts 300°
2026-05-01 11:36 17.23003 78.42870 1981 ft 1 kts 300°
2026-05-01 11:36 17.23006 78.42865 1980 ft 2 kts 300°
2026-05-01 11:36 17.23018 78.42843 1981 ft 5 kts 300°
2026-05-01 11:36 17.23040 78.42804 1979 ft 7 kts 300°
2026-05-01 11:37 17.23070 78.42753 1983 ft 9 kts 308°
2026-05-01 11:37 17.23133 78.42730 1982 ft 10 kts 356°
2026-05-01 11:37 17.23191 78.42729 1980 ft 8 kts 359°
2026-05-01 11:37 17.23253 78.42728 1981 ft 10 kts 359°
2026-05-01 11:38 17.23318 78.42750 1980 ft 11 kts 51°
2026-05-01 11:38 17.23329 78.42813 1984 ft 10 kts 89°
2026-05-01 11:38 17.23329 78.42888 1980 ft 11 kts 89°
2026-05-01 11:38 17.23330 78.42969 1980 ft 11 kts 89°
2026-05-01 11:39 17.23332 78.43052 1980 ft 12 kts 89°
2026-05-01 11:39 17.23334 78.43137 1980 ft 11 kts 83°
2026-05-01 11:39 17.23360 78.43210 1982 ft 10 kts 77°
2026-05-01 11:39 17.23364 78.43236 1982 ft 1 kts 85°
2026-05-01 11:40 17.23364 78.43246 1980 ft 2 kts 90°
2026-05-01 11:40 17.23364 78.43265 1980 ft 3 kts 90°
2026-05-01 11:40 17.23363 78.43292 1980 ft 4 kts 90°
2026-05-01 11:40 17.23364 78.43324 1980 ft 5 kts 88°
2026-05-01 11:41 17.23365 78.43363 1980 ft 4 kts 89°
2026-05-01 11:41 17.23367 78.43395 1980 ft 4 kts 73°
2026-05-01 11:41 17.23389 78.43408 1980 ft 4 kts 15°
2026-05-01 11:41 17.23403 78.43409 1980 ft 0 kts 359°
2026-05-01 11:42 17.23407 78.43409 1980 ft 0 kts 359°
2026-05-01 11:42 17.23412 78.43409 1980 ft 1 kts 360°
2026-05-01 11:42 17.23415 78.43409 1983 ft 0 kts 360°